Weather History for Minot AFB, ND

Change the Weather History Date:

Friday, August 2, 2013

  Actual Average Record
Temperature  
Mean Temperature 60 °F -  
Max Temperature 73 °F 79 °F 89 °F (2005)
Min Temperature 48 °F 55 °F 37 °F (2002)
Degree Days  
Heating Degree Days 5    
Growing Degree Days 10 (Base 50)    
Moisture  
Dew Point 50 °F    
Average Humidity 68    
Maximum Humidity 99    
Minimum Humidity 41    
Precipitation  
Precipitation 0.00 in - - ()
Sea Level Pressure  
Sea Level Pressure 30.06 in    
Wind  
Wind Speed 5 mph (North)    
Max Wind Speed 12 mph    
Max Gust Speed 17 mph    
Visibility 10 miles    
Events      
Averages and records for this station are not official NWS values.
T = Trace of Precipitation, MM = Missing Value Source: NWS Daily Summary

Daily Weather History Graph

Daily Weather History Graph

Search for Another Location

Airport:

Trip Planner

Search our weather history database for the weather conditions in past years. The results will help you decide how hot, cold, wet, or windy it might be!

Date:

Astronomy

Aug. 02, 2013 Rise Set
Actual Time 6:21 AM CDT 9:20 PM CDT
Civil Twilight 5:45 AM CDT 9:56 PM CDT
Nautical Twilight 4:57 AM CDT 10:43 PM CDT
Astronomical Twilight 3:59 AM CDT 11:41 PM CDT
Moon 2:41 AM CDT (8/2) 6:23 PM CDT (8/2)
Length of Visible Light 16h 11m
Length of Day
14h 58m
Waning Crescent, 15% of the Moon is Illuminated
Aug 2
Waning Crescent
Aug 6
New
Aug 14
First Quarter
Aug 20
Full
Aug 28
Last Quarter

Hourly Weather History & Observations

Time (CDT) Temp. Dew Point Humidity Pressure Visibility Wind Dir Wind Speed Gust Speed Precip Events Conditions
12:58 AM 51.8 °F 50.4 °F 95% 30.01 in 10.0 mi WSW 4.6 mph - N/A   Clear
1:58 AM 50.7 °F 49.8 °F 97% 30.01 in 10.0 mi WNW 5.8 mph - N/A   Clear
2:58 AM 52.9 °F 51.6 °F 95% 30.00 in 10.0 mi WNW 3.5 mph - N/A   Clear
3:58 AM 52.0 °F 51.3 °F 97% 30.00 in 10.0 mi WSW 5.8 mph - N/A   Clear
4:58 AM 51.8 °F 51.3 °F 98% 30.00 in 10.0 mi NNW 3.5 mph - N/A   Clear
5:58 AM 49.5 °F 48.7 °F 97% 30.01 in 10.0 mi NW 4.6 mph - N/A   Clear
6:58 AM 48.6 °F 48.4 °F 99% 30.04 in 10.0 mi NW 4.6 mph - N/A   Clear
7:58 AM 56.3 °F 52.2 °F 86% 30.03 in 10.0 mi North 4.6 mph - N/A   Clear
8:58 AM 58.8 °F 53.2 °F 82% 30.05 in 10.0 mi North 4.6 mph - N/A   Clear
9:58 AM 63.0 °F 53.8 °F 72% 30.07 in 10.0 mi East 2.3 mph - N/A   Clear
10:58 AM 66.9 °F 53.2 °F 61% 30.06 in 10.0 mi NE 4.6 mph - N/A   Clear
11:58 AM 69.3 °F 48.6 °F 48% 30.07 in 10.0 mi NNE 5.8 mph - N/A   Clear
12:58 PM 69.6 °F 50.0 °F 50% 30.07 in 10.0 mi NNE 5.8 mph - N/A   Clear
1:58 PM 70.9 °F 47.7 °F 44% 30.07 in 10.0 mi NNW 4.6 mph - N/A   Partly Cloudy
2:58 PM 71.4 °F 47.8 °F 43% 30.08 in 10.0 mi Variable 3.5 mph - N/A   Clear
3:58 PM 71.6 °F 48.4 °F 44% 30.08 in 10.0 mi North 5.8 mph - N/A   Scattered Clouds
4:58 PM 72.1 °F 46.9 °F 41% 30.07 in 10.0 mi NNE 8.1 mph - N/A   Partly Cloudy
5:58 PM 71.6 °F 48.6 °F 44% 30.07 in 10.0 mi NE 9.2 mph 17.3 mph N/A   Mostly Cloudy
6:58 PM 70.7 °F 48.7 °F 46% 30.08 in 10.0 mi NE 11.5 mph - N/A   Scattered Clouds
7:58 PM 67.8 °F 50.2 °F 53% 30.10 in 10.0 mi NE 9.2 mph - N/A   Clear
8:58 PM 66.4 °F 49.3 °F 54% 30.10 in 10.0 mi ENE 8.1 mph - N/A   Clear
9:58 PM 64.4 °F 49.3 °F 58% 30.12 in 10.0 mi ENE 8.1 mph - N/A   Partly Cloudy
10:58 PM 62.4 °F 50.7 °F 66% 30.14 in 10.0 mi ENE 5.8 mph - N/A   Scattered Clouds
11:58 PM 62.8 °F 50.4 °F 64% 30.16 in 10.0 mi NE 3.5 mph - N/A   Mostly Cloudy